(269982) = 2000 TU67

Discovered at Socorro on 2000-10-03 by LINEAR.

Orbit

Orbit type: Main Belt

Note: WebGL enabled browser required.

epoch2023-02-25.0
epoch JD2460000.5
perihelion date2020-08-24.37835
perihelion JD2459085.87835
argument of perihelion (°)302.46485
ascending node (°)31.67333
inclination (°)8.36092
eccentricity0.1497728
perihelion distance (AU)2.1621996
Tisserand w.r.t. Jupiter3.4
ΔV w.r.t. Earth (km/sec)9.6
semimajor axis (AU)2.5430844
mean anomaly (°)222.28193
mean daily motion (°/day)0.24303160
aphelion distance (AU)2.924
period (years)4.06
P-vector [x]0.89514016
P-vector [y]-0.34440492
P-vector [z]-0.28303594
Q-vector [x]0.43919781
Q-vector [y]0.79009281
Q-vector [z]0.42761973
absolute magnitude16.94
phase slope0.15
uncertainty0
referenceMPO 745323
observations used319
oppositions14
arc length (days)8264
first opposition used2000
last opposition used2023
residual rms (arc-secs)0.79
perturbers coarse indicatorM-v
perturbers precise indicator003Ek
first observation date used2000-09-27.0
last observation date used2023-05-14.0
computer nameMPCLINUX
Minimum Orbit Intersection Distances (in AU)
for orbit epoch: 2460000.5, reference: E2023-JF5
Mercury1.75498
Venus1.43667
Earth1.16518
Mars0.79542
Jupiter2.47461
Saturn6.32338
Uranus15.5406
Neptune27.4454

Observations

324 total observations over interval: 2000 09 27.26163 – 2023 05 14.298201
These data are available for download (format description).

Date (UT) J2000 RA J2000 Dec Magn Location Ref
2000 09 27.26163 01 47 25.92 +07 05 37.2 19.0   704 – Lincoln Laboratory ETS, New Mexico MPS 34348
2000 09 27.27673 01 47 25.12 +07 05 37.3 19.5   704 – Lincoln Laboratory ETS, New Mexico MPS 34348
2000 09 27.29180 01 47 24.45 +07 05 36.9 19.8   704 – Lincoln Laboratory ETS, New Mexico MPS 34348
2000 09 27.32198 01 47 23.15 +07 05 37.2 19.8   704 – Lincoln Laboratory ETS, New Mexico MPS 34348
2000 10 03.32032 01 42 05.66 +07 01 29.3 19.5   704 – Lincoln Laboratory ETS, New Mexico MPS 21506
2000 10 03.33930 01 42 04.52 +07 01 28.8 19.3   704 – Lincoln Laboratory ETS, New Mexico MPS 21506
2000 10 03.35162 01 42 03.71 +07 01 27.3 19.4   704 – Lincoln Laboratory ETS, New Mexico MPS 21506
2000 10 03.35433 01 42 03.61 +07 01 28.8 19.4   704 – Lincoln Laboratory ETS, New Mexico MPS 21506
2000 10 03.36618 01 42 02.88 +07 01 27.2 19.4   704 – Lincoln Laboratory ETS, New Mexico MPS 21506
2000 10 03.36927 01 42 02.73 +07 01 27.5 19.2   704 – Lincoln Laboratory ETS, New Mexico MPS 21506
2000 10 03.38184 01 42 02.01 +07 01 26.9 19.2   704 – Lincoln Laboratory ETS, New Mexico MPS 21506
2000 10 03.38422 01 42 01.80 +07 01 26.1 19.9   704 – Lincoln Laboratory ETS, New Mexico MPS 21506
2000 10 07.29681 01 38 15.45 +06 57 53.0 19.3 R 699 – Lowell Observatory-LONEOS MPS 21506
2000 10 07.33872 01 38 12.93 +06 57 50.5   699 – Lowell Observatory-LONEOS MPS 21506
2000 10 07.38065 01 38 10.26 +06 57 46.8   699 – Lowell Observatory-LONEOS MPS 21506
2000 10 07.42269 01 38 07.70 +06 57 45.6   699 – Lowell Observatory-LONEOS MPS 21506
2000 11 02.22626 01 12 58.50 +06 39 33.9 19.4   704 – Lincoln Laboratory ETS, New Mexico MPS 34348
2000 11 02.23978 01 12 57.82 +06 39 33.0 19.7   704 – Lincoln Laboratory ETS, New Mexico MPS 34348
2000 11 02.25335 01 12 57.11 +06 39 32.7 20.0   704 – Lincoln Laboratory ETS, New Mexico MPS 34348
2004 09 08.30668 01 24 50.83 +02 00 41.3 19.7   704 – Lincoln Laboratory ETS, New Mexico MPS 114183
2004 09 08.33048 01 24 49.98 +02 00 40.9 20.2   704 – Lincoln Laboratory ETS, New Mexico MPS 114183
2004 09 08.34213 01 24 49.63 +02 00 40.0 19.8   704 – Lincoln Laboratory ETS, New Mexico MPS 114183
2004 09 16.33306 01 19 53.61 +01 55 12.4 20.1 R 683 – Goodricke-Pigott Observatory, Tucson MPS 114183
2004 09 16.34645 01 19 53.12 +01 55 12.9 20.4 R 683 – Goodricke-Pigott Observatory, Tucson MPS 114183
2004 09 16.35982 01 19 52.46 +01 55 11.2 21.2 R 683 – Goodricke-Pigott Observatory, Tucson MPS 114183
2004 09 23.31004 01 14 15.45 +01 47 16.3 20.4 R 683 – Goodricke-Pigott Observatory, Tucson MPS 114183
2004 09 23.32340 01 14 14.93 +01 47 13.8 20.6 R 683 – Goodricke-Pigott Observatory, Tucson MPS 114183
2004 09 23.33681 01 14 14.07 +01 47 15.1 20.9 R 683 – Goodricke-Pigott Observatory, Tucson MPS 114183
2004 10 05.30351 01 02 44.26 +01 31 57.2 18.9 R 699 – Lowell Observatory-LONEOS MPS 115626
2004 10 05.32299 01 02 43.13 +01 31 55.3   699 – Lowell Observatory-LONEOS MPS 115626
2004 10 05.34246 01 02 41.87 +01 31 54.6   699 – Lowell Observatory-LONEOS MPS 115626
2004 10 05.36193 01 02 40.50 +01 31 52.2   699 – Lowell Observatory-LONEOS MPS 115626
2004 10 09.20345 00 58 47.68 +01 27 47.5 19.1   704 – Lincoln Laboratory ETS, New Mexico MPS 116453
2004 10 09.21441 00 58 46.96 +01 27 46.8 19.6   704 – Lincoln Laboratory ETS, New Mexico MPS 116453
2004 10 09.22540 00 58 46.31 +01 27 45.1 19.5   704 – Lincoln Laboratory ETS, New Mexico MPS 116453
2004 10 09.24754 00 58 44.90 +01 27 44.3 19.3   704 – Lincoln Laboratory ETS, New Mexico MPS 116453
2004 11 04.08566 00 37 18.18 +01 37 29.6 20.3 V 691 – Steward Observatory, Kitt Peak-Spacewatch MPS 118304
2004 11 04.10454 00 37 17.53 +01 37 32.0 20.9 V 691 – Steward Observatory, Kitt Peak-Spacewatch MPS 118304
2004 11 04.12181 00 37 16.92 +01 37 33.1 20.5 V 691 – Steward Observatory, Kitt Peak-Spacewatch MPS 118304
2007 03 26.46671 14 32 51.68 -14 09 34.1 21.5 V G96 – Mt. Lemmon Survey MPS 205488
2007 03 26.46738 14 32 51.61 -14 09 33.5 21.4 V 691 – Steward Observatory, Kitt Peak-Spacewatch MPS 205488
2007 03 26.47218 14 32 51.50 -14 09 33.5 20.7 V G96 – Mt. Lemmon Survey MPS 205488
2007 03 26.47756 14 32 51.28 -14 09 34.2 20.9 V G96 – Mt. Lemmon Survey MPS 205488
2007 03 26.48301 14 32 51.10 -14 09 34.0 21.1 V G96 – Mt. Lemmon Survey MPS 205488
2007 03 26.48499 14 32 51.02 -14 09 34.0 21.0 V 691 – Steward Observatory, Kitt Peak-Spacewatch MPS 205488
2007 03 26.50285 14 32 50.40 -14 09 33.5 21.2 V 691 – Steward Observatory, Kitt Peak-Spacewatch MPS 205488
2007 04 14.35877 14 18 34.84 -13 53 54.8 20.1 V G96 – Mt. Lemmon Survey MPS 206790
2007 04 14.36428 14 18 34.56 -13 53 54.2 20.1 V G96 – Mt. Lemmon Survey MPS 206790
2007 04 14.36980 14 18 34.27 -13 53 53.4 20.2 V G96 – Mt. Lemmon Survey MPS 206790
2007 04 14.37530 14 18 33.91 -13 53 53.2 20.3 V G96 – Mt. Lemmon Survey MPS 206790
2008 09 22.29658 00 37 15.21 -03 55 46.7 19.5   704 – Lincoln Laboratory ETS, New Mexico MPS 256518
2008 09 22.30853 00 37 14.50 -03 55 48.6 20.0   704 – Lincoln Laboratory ETS, New Mexico MPS 256518
2008 09 22.32049 00 37 13.74 -03 55 49.6 19.2   704 – Lincoln Laboratory ETS, New Mexico MPS 256518
2008 09 23.23622 00 36 20.80 -03 57 20.8 18.6   704 – Lincoln Laboratory ETS, New Mexico MPS 256518
2008 09 23.24854 00 36 19.96 -03 57 21.0 18.9   704 – Lincoln Laboratory ETS, New Mexico MPS 256518
2008 09 23.26083 00 36 19.24 -03 57 22.5 19.3   704 – Lincoln Laboratory ETS, New Mexico MPS 256518
2008 09 23.27314 00 36 18.50 -03 57 24.4 19.3   704 – Lincoln Laboratory ETS, New Mexico MPS 256518
2008 09 23.28519 00 36 17.76 -03 57 24.7 19.2   704 – Lincoln Laboratory ETS, New Mexico MPS 256518
2008 10 17.12707 00 13 58.12 -04 06 49.7 19.9 V 691 – Steward Observatory, Kitt Peak-Spacewatch MPS 260212
2008 10 17.16720 00 13 56.16 -04 06 46.6 19.6 V 691 – Steward Observatory, Kitt Peak-Spacewatch MPS 260212
2008 10 17.20734 00 13 54.20 -04 06 43.4 19.8 V 691 – Steward Observatory, Kitt Peak-Spacewatch MPS 260212
2008 12 03.13566 00 08 36.42 -00 22 01.6 20.9 V G96 – Mt. Lemmon Survey MPS 267372
2008 12 03.14226 00 08 36.60 -00 21 58.7 20.6 V G96 – Mt. Lemmon Survey MPS 267372
2008 12 03.14880 00 08 36.81 -00 21 55.5 21.1 V G96 – Mt. Lemmon Survey MPS 267372
2008 12 03.16067 00 08 37.17 -00 21 49.8 20.6 V G96 – Mt. Lemmon Survey MPS 267372
2010 04 12.730234 08 10 45.377 +29 07 57.61   C51 – WISE MPS 903858
2010 04 12.862537 08 10 50.498 +29 07 15.24   C51 – WISE MPS 903858
2010 04 13.193362 08 11 02.765 +29 05 31.88   C51 – WISE MPS 903858
2010 04 13.325667 08 11 07.560 +29 04 51.64   C51 – WISE MPS 903858
2010 04 13.722579 08 11 22.670 +29 02 46.72   C51 – WISE MPS 903858
2011 04 01.29933 14 06 10.03 -11 12 35.8 21.0 V 691 – Steward Observatory, Kitt Peak-Spacewatch MPS 375468
2011 04 01.31710 14 06 09.08 -11 12 34.4 21.2 V 691 – Steward Observatory, Kitt Peak-Spacewatch MPS 375468
2011 04 01.33488 14 06 08.23 -11 12 32.6 20.9 V 691 – Steward Observatory, Kitt Peak-Spacewatch MPS 375468
2011 04 05.30470 14 02 51.53 -11 05 42.7 20.6 V 691 – Steward Observatory, Kitt Peak-Spacewatch MPS 377079
2011 04 05.32248 14 02 50.58 -11 05 40.8 20.7 V 691 – Steward Observatory, Kitt Peak-Spacewatch MPS 377079
2011 04 05.34022 14 02 49.67 -11 05 38.5 20.5 V 691 – Steward Observatory, Kitt Peak-Spacewatch MPS 377079
2011 04 13.29508 13 55 33.15 -10 49 02.6 20.4 V 691 – Steward Observatory, Kitt Peak-Spacewatch MPS 378557
2011 04 13.31286 13 55 32.07 -10 49 00.2 20.8 V 691 – Steward Observatory, Kitt Peak-Spacewatch MPS 378557
2011 04 13.33062 13 55 31.01 -10 48 57.6 20.9 V 691 – Steward Observatory, Kitt Peak-Spacewatch MPS 378557
2011 04 30.24642 13 38 56.40 -10 08 33.7 20.2 V G96 – Mt. Lemmon Survey MPS 382073
2011 04 30.25400 13 38 55.93 -10 08 32.7 20.1 V G96 – Mt. Lemmon Survey MPS 382074
2011 04 30.26163 13 38 55.46 -10 08 31.5 20.3 V G96 – Mt. Lemmon Survey MPS 382074
2011 04 30.26913 13 38 55.03 -10 08 30.6 20.5 V G96 – Mt. Lemmon Survey MPS 382074
2012 09 15.30645 00 01 52.57 -10 02 44.7 18.7 V 703 – Catalina Sky Survey MPS 433195
2012 09 15.32952 00 01 51.20 -10 02 47.6 19.1 V 703 – Catalina Sky Survey MPS 433195
2012 09 15.34109 00 01 50.55 -10 02 49.7 18.6 V 703 – Catalina Sky Survey MPS 433195
2012 09 19.32832 23 57 56.37 -10 09 19.1 19.6 V G96 – Mt. Lemmon Survey MPS 433195
2012 09 19.33704 23 57 55.83 -10 09 19.8 19.7 V G96 – Mt. Lemmon Survey MPS 433195
2012 09 19.34573 23 57 55.29 -10 09 20.7 19.8 V G96 – Mt. Lemmon Survey MPS 433195
2012 09 19.35447 23 57 54.72 -10 09 21.1 19.9 V G96 – Mt. Lemmon Survey MPS 433195
